Find Starlink 31548

NORAD ID: 59193 Int'l Des: 2024-045 Owner: SPXS Country: US Constellation: starlink operational
LEOCIRCULAR

Live Position

Loading 3D Globe...

About Starlink 31548

Description loading...

Upcoming Passes

Passes for default location (London). Set your location on the main map for personalized predictions.

Altitude History

Loading altitude history...

Two-Line Element Set

1 59193U 24045R 26109.59926795 .00002114 00000-0 86328-4 0 9991
2 59193 42.9998 221.8766 0001416 265.3477 94.7213 15.27581545119413
Epoch: Apr 19, 2026 • Age: 13 hours

Current Status

Altitude 483.5 km
Velocity 7.63 km/s
Sub-Earth Point -4.74°S, 37.95°W
Launch Date Mar 11, 2024
Age 2.1 years
Type internet

Technical Details

Classification Payload
Mass 730.00 kg
Dry Mass 700.00 kg
Total Mass 730.00 kg
Length 0.30 m
Diameter 4.10 m
Span 29.00 m
Shape Box + pan
Manufacturer SPXS
Bus Type Starlink V2M
Phase Status In Orbit
Owner/State SPXS/US

Most Searched